COSMOS 1275 DEB

Satellite information

Favourite Embed

Satellite Type and Status

DEBRISIN ORBIT

Key statistics

Satellite COSMOS 1275 DEB at a glance.

Uptime

16217

Days in orbit

Revolutions

≈ 13.8

Per day

Orbit

LEO

Low Earth Orbit

Inclination

82.9

Latest

Satellite identification and parameters

Extended collection of information and parameters for COSMOS 1275 DEB.

Object identification

Identified? True

Debris? True

Object name: COSMOS 1275 DEB

International designator: 1981-053CL

Object number (NORAD): 12743

Object ID (CCSDS): 12743

Country: COMMONWEALTH OF INDEPENDENT STATES (CIS)

Current information (Y/N): Y

RCS size: MEDIUM

Orbital parameters

Period: 104.336 minutes

Inclination: 82.9266 deg

SMA: 7341.481 km

Apoapsis: 1011.79 km

Periapsis: 914.902 km

RAAN: 27.0857 deg

Eccentricy: 0.00659871

Argument of periapsis: 115.286 deg

Mean anomaly: 7.7747 deg

Mean motion: 13.80153026 rev/day

Mean motion (dot): 0.00000861 rev/day2

B* drag term: 0.00079905143 1/REarth

Two-line elements (TLE)

Creation date: Oct. 27, 2025, 2:46 a.m.

Reference frame: TEME

Reference center: EARTH

Epoch: Oct. 26, 2025, 7:12 p.m. UTC

TLE line 0: 0 COSMOS 1275 DEB

TLE line 1: 1 12743U 81053CL 25299.80035779 .00000861 00000-0 79905-3 0 9998

TLE line 2: 2 12743 82.9266 27.0857 0065987 115.2860 7.7747 13.80153026219079

Live tracking on map

Real-time ground track for satellite COSMOS 1275 DEB.

In-orbit conjunctions

A list of the most updated potential collisions computed for object COSMOS 1275 DEB.

Target Orbit TCA Probability of collision Miss distance Type
SL-8 DEB LEO 2025-09-24 00:43:56 0.0004468876 47.0 (m) DEBRIS
COSMOS 469 LEO 2025-08-27 04:15:49 0.0001599761 160.0 (m) PAYLOAD
NIMBUS 2 DEB SSO 2025-02-06 05:45:18 0.0001332897 62.0 (m) DEBRIS

Associated space launch

Navigation satellite providing location information for the Tsiklon-B navigation system

COSMOS 1275 DEB was lifted into orbit during the mission ‘Kosmos-3M | Parus 27’, on board a Kosmos-3M space rocket.

The launch took place on June 4, 1981, 3:41 p.m. from 132/2.

For more information about the launch, click the button.

Launch to space Kosmos-3M | Parus 27
Kosmos-3M | Parus 27

Agency: N/A

Status: Launch Successful

Launch date: June 4, 1981, 3:41 p.m. UTC

Rocket: Kosmos-3M

Launch pad: 132/2

Location: Plesetsk Cosmodrome, Russian Federation

...

Latest news about this satellite

There are no fresh news available about this satellite. Check back as we update our databases every day.


Newsletter sign-up

Weekly statistics, charts and insights to help you stay on top of the space industry.